#timestamp,LO_Frequency,Hit,StdDev 
1700647215.7,286047067.4,N
1700647235.5,286047068.6,N
1700647255.4,286047072.6,N
1700647275.2,286047169.6,N
1700647295.0,286046559.0,N
1700647295.9,286046559.0,N
1700647315.8,286047078.4,N
1700647335.6,286047082.4,N
1700647355.4,286047083.0,N
1700647375.3,286046552.8,N
1700647395.1,286047088.9,N
1700647415.9,286046547.4,N
1700647435.7,286047093.5,N
1700647455.5,286046545.6,N
1700647475.4,286046544.7,N
1700647495.2,286047128.6,N
1700647515.0,286046540.4,N
1700647515.9,286046540.4,N
1700647535.8,286047499.1,N
1700647555.6,286045878.2,Y
1700647575.5,286045688.0,P
1700647595.3,286045739.9,N
1700647615.1,286044634.8,P
1700647635.9,286044026.7,Y
1700647655.7,286047282.7,P
1700647675.6,286048824.2,N
1700647695.4,286048825.9,N
1700647715.2,286048827.7,N
1700647735.1,286047570.0,N
1700647736.0,286047570.0,N
1700647755.8,286047569.4,N
1700647775.6,286047532.1,N
1700647795.5,286047645.4,N
1700647815.3,286047645.5,N
1700647835.2,286047530.8,N
1700647855.9,286047643.1,N
1700647875.7,286047645.9,N
1700647895.6,286047528.6,N
1700647915.4,286048466.8,N
1700647935.2,286047533.7,N
1700647955.1,286046936.6,N
1700647956.0,286046936.6,N
1700647975.8,286048662.8,N
1700647995.7,286048631.8,N
1700648015.5,286048601.9,N
1700648035.3,286048634.4,N
1700648055.2,286048462.7,N
1700648075.9,286048529.5,N
1700648095.7,286048588.0,N
1700648115.6,286047822.1,N
1700648135.4,286049698.1,Y
1700648155.3,286047599.5,P
1700648175.1,286047789.3,P
1700648176.0,286047789.3,P
1700648195.8,286047787.6,Y
1700648215.7,286046764.4,P
1700648235.5,286046662.3,N
1700648255.3,286047559.8,N
1700648275.2,286048077.4,N
1700648295.0,286045741.9,N
1700648295.9,286045741.9,N
1700648315.8,286046728.2,N
1700648335.6,286045744.0,N
1700648355.4,286046134.7,N
1700648375.3,286046136.9,N
1700648395.1,286046137.7,N
1700648415.8,286046141.6,N
1700648435.7,286046143.4,N
1700648455.5,286046142.2,N
1700648475.4,286046146.4,N
1700648495.2,286046148.5,N
1700648515.0,286045254.7,N
1700648515.9,286045254.7,N
1700648535.8,286046131.5,N
1700648555.6,286045879.5,N
1700648575.4,286046108.8,N
1700648595.3,286046109.1,N
1700648615.1,286046107.0,N
1700648635.9,286046262.1,N
1700648655.7,286046170.4,N
1700648675.5,286046710.9,N
1700648695.4,286046710.1,N
1700648715.2,286046160.4,N
1700648735.0,286046675.7,N
1700648735.9,286046675.7,N
1700648755.8,286046091.9,N
1700648775.6,286046089.4,N
1700648795.4,286046087.2,N
1700648815.3,286046085.5,N
1700648835.1,286046083.5,N
1700648855.9,286046675.7,N
1700648875.7,286046078.9,N
1700648895.5,286046079.6,N
1700648915.4,286046073.4,N
1700648935.2,286046675.6,N
1700648955.0,286046679.1,N
1700648955.9,286046068.7,N
1700648975.8,286046065.7,N
1700648995.6,286046064.0,N
1700649015.5,286046059.0,N
1700649035.3,286046060.4,N
1700649055.1,286045181.4,Y
1700649075.9,286047048.6,P
1700649095.7,286047394.6,N
1700649115.6,286047098.0,N
1700649135.4,286046756.2,N
1700649155.2,286048112.6,N
1700649175.1,286047317.1,N
1700649176.0,286047317.1,N
1700649195.8,286048609.4,Y
1700649215.7,286046712.7,P
1700649235.5,286046708.9,N
1700649255.3,286046709.8,N
1700649275.2,286046706.8,N
1700649295.0,286047618.5,Y
1700649295.9,286047618.5,P
1700649315.7,286048087.5,N
1700649335.6,286047404.0,N
1700649355.4,286048182.7,N
1700649375.3,286048185.0,N
1700649395.1,286046894.3,N
1700649396.0,286046894.3,N
1700649415.8,286048186.5,N
1700649435.7,286048182.7,N
1700649455.5,286047785.1,N
1700649475.3,286048208.6,N
1700649495.2,286047873.1,N
1700649515.0,286048188.4,N
1700649515.9,286048188.4,N
1700649535.8,286047875.5,N
1700649555.6,286047568.2,N
1700649575.4,286048190.9,N
1700649595.3,286047578.5,N
1700649615.1,286047582.0,N
1700649635.8,286047586.7,N
1700649655.7,286047585.8,N
1700649675.5,286047832.7,N
1700649695.4,286047158.9,N
1700649715.2,286047676.4,N
1700649735.0,286047685.9,N
1700649735.9,286047685.9,N
1700649755.8,286047677.9,N
1700649775.6,286047676.1,N
1700649795.4,286047675.9,N
1700649815.3,286047673.9,N
1700649835.1,286047673.9,N
1700649855.9,286047676.1,N
1700649875.7,286047636.1,N
1700649895.5,286047682.5,N
1700649915.4,286047681.7,N
1700649935.2,286047678.8,N
1700649955.0,286047677.3,N
1700649955.9,286047677.3,N
1700649975.8,286047678.0,N
1700649995.6,286047677.6,Y
1700650015.5,286046944.4,P
1700650035.3,286046942.6,N
1700650055.1,286046942.2,N
1700650075.9,286046810.6,N
1700650095.7,286046937.5,N
1700650115.5,286046942.4,N
1700650135.4,286046940.5,N
1700650155.2,286046944.9,N
1700650175.1,286046944.4,N
1700650176.0,286046944.4,N
1700650195.8,286046945.1,N
1700650215.6,286046944.1,N
1700650235.5,286046943.1,N
1700650255.3,286046942.6,N
1700650275.1,286046943.0,N
1700650295.9,286046943.5,N
1700650315.7,286046941.7,N
1700650335.6,286046939.6,N
1700650355.4,286046941.9,N
1700650375.2,286046941.4,N
1700650395.1,286046938.9,N
1700650396.0,286046938.9,N
1700650415.8,286046939.3,N
1700650435.6,286046940.9,N
1700650455.5,286046943.5,N
1700650475.3,286046942.5,N
1700650495.2,286046946.3,N
1700650515.9,286046945.5,N
1700650535.7,286046946.4,N
1700650555.6,286046941.4,N
1700650575.4,286046941.8,N
1700650595.2,286046941.0,N
1700650615.1,286046944.7,N
1700650616.0,286046944.7,N
1700650635.8,286046942.4,Y
1700650655.7,286047001.8,P
1700650675.5,286047003.3,N
1700650695.3,286047003.6,N
1700650715.2,286047004.0,N
1700650735.0,286047003.9,N
1700650735.9,286047003.9,N
1700650755.7,286047003.5,N
1700650775.6,286047005.8,N
1700650795.4,286047002.9,N
